When you browse on this site, cookies collect data to enhance your experience and personalize the content and advertising you see.
Visit our Privacy Policy to learn more. By continuing to use the site, you agree to this use of cookies and data.
  • In Hungary
  • List of Countries
  • For 7 days
  • Water Temperature
  • Satellite Maps
  • Weather Map
  • News
  • Weather Widgets
  • user-avatar
    Login

    Hourly Weather Da Nang

    Today, 19 February, Tuesday

    Time Temperature Precipitation Wind Pressure Humidity
    00:00 +25°C° 0 mm 2 mps 758 mmHg 94%
    01:00 +24°C° 0 mm 2 mps 758 mmHg 93%
    02:00 +24°C° 0 mm 2 mps 758 mmHg 93%
    03:00 +24°C° 0 mm 2 mps 758 mmHg 92%
    04:00 +23°C° 0 mm 2 mps 758 mmHg 91%
    05:00 +24°C° 0 mm 2 mps 758 mmHg 89%
    06:00 +24°C° 0 mm 2 mps 759 mmHg 88%
    07:00 +24°C° 0 mm 2 mps 759 mmHg 86%
    08:00 +27°C° 0 mm 2 mps 759 mmHg 74%
    09:00 +31°C° 0 mm 2 mps 760 mmHg 61%
    10:00 +34°C° 0 mm 1 mps 760 mmHg 49%
    11:00 +35°C° 0 mm 2 mps 759 mmHg 48%
    12:00 +36°C° 0 mm 3 mps 759 mmHg 47%
    13:00 +36°C° 0 mm 3 mps 758 mmHg 45%
    14:00 +35°C° 0 mm 4 mps 758 mmHg 51%
    15:00 +34°C° 0 mm 4 mps 758 mmHg 57%
    16:00 +33°C° 0 mm 4 mps 757 mmHg 64%
    17:00 +30°C° 0.3 mm 4 mps 758 mmHg 74%
    18:00 +28°C° 0.3 mm 3 mps 758 mmHg 85%
    19:00 +26°C° 0.3 mm 3 mps 759 mmHg 96%
    20:00 +26°C° 0 mm 3 mps 759 mmHg 97%
    21:00 +26°C° 0 mm 3 mps 760 mmHg 97%
    22:00 +26°C° 0 mm 2 mps 760 mmHg 97%
    23:00 +25°C° 0 mm 2 mps 760 mmHg 97%

    Tomorrow, 20 February, Wednesday

    Time Temperature Precipitation Wind Pressure Humidity
    00:00 +25°C° 0 mm 2 mps 760 mmHg 97%
    01:00 +25°C° 0 mm 2 mps 760 mmHg 97%
    02:00 +25°C° 0 mm 2 mps 760 mmHg 97%
    03:00 +24°C° 0 mm 2 mps 760 mmHg 97%
    04:00 +24°C° 0 mm 2 mps 759 mmHg 96%
    05:00 +24°C° 0 mm 2 mps 760 mmHg 95%
    06:00 +25°C° 0 mm 2 mps 760 mmHg 94%
    07:00 +25°C° 0 mm 2 mps 761 mmHg 92%
    08:00 +27°C° 0 mm 2 mps 761 mmHg 81%
    09:00 +30°C° 0 mm 3 mps 761 mmHg 70%
    10:00 +33°C° 0 mm 3 mps 761 mmHg 59%
    11:00 +34°C° 0 mm 3 mps 761 mmHg 56%
    12:00 +35°C° 0 mm 4 mps 760 mmHg 54%
    13:00 +36°C° 0 mm 4 mps 759 mmHg 52%
    14:00 +35°C° 0.2 mm 4 mps 759 mmHg 59%
    15:00 +33°C° 0.2 mm 5 mps 758 mmHg 66%
    16:00 +32°C° 0.2 mm 5 mps 758 mmHg 74%
    17:00 +30°C° 0.2 mm 4 mps 758 mmHg 81%
    18:00 +28°C° 0.2 mm 4 mps 759 mmHg 87%
    19:00 +27°C° 0.2 mm 3 mps 759 mmHg 94%
    20:00 +26°C° 0 mm 3 mps 760 mmHg 95%
    21:00 +26°C° 0 mm 3 mps 760 mmHg 96%
    22:00 +26°C° 0 mm 3 mps 761 mmHg 97%
    23:00 +26°C° 0 mm 3 mps 760 mmHg 98%

    Day after tomorrow, 21 February, Thursday

    Time Temperature Precipitation Wind Pressure Humidity
    00:00 +26°C° 0 mm 3 mps 760 mmHg 98%
    01:00 +26°C° 0 mm 3 mps 760 mmHg 98%
    02:00 +25°C° 0 mm 2 mps 760 mmHg 98%
    03:00 +25°C° 0 mm 2 mps 759 mmHg 98%
    04:00 +25°C° 0 mm 2 mps 759 mmHg 98%
    05:00 +25°C° 0 mm 2 mps 759 mmHg 96%
    06:00 +25°C° 0 mm 2 mps 760 mmHg 95%
    07:00 +25°C° 0 mm 2 mps 760 mmHg 94%
    08:00 +28°C° 0 mm 2 mps 760 mmHg 82%
    09:00 +31°C° 0 mm 3 mps 761 mmHg 70%
    10:00 +34°C° 0 mm 3 mps 761 mmHg 59%
    11:00 +35°C° 0 mm 3 mps 760 mmHg 56%
    12:00 +36°C° 0 mm 4 mps 759 mmHg 53%
    13:00 +37°C° 0 mm 4 mps 758 mmHg 51%
    14:00 +35°C° 0.2 mm 4 mps 758 mmHg 57%
    15:00 +34°C° 0.2 mm 4 mps 757 mmHg 64%
    16:00 +33°C° 0.2 mm 4 mps 756 mmHg 70%
    17:00 +30°C° 0.2 mm 4 mps 757 mmHg 78%
    18:00 +28°C° 0.2 mm 3 mps 758 mmHg 86%
    19:00 +27°C° 0.2 mm 3 mps 758 mmHg 94%
    20:00 +26°C° 0 mm 3 mps 758 mmHg 95%
    21:00 +26°C° 0 mm 2 mps 759 mmHg 96%
    22:00 +26°C° 0 mm 2 mps 759 mmHg 96%
    23:00 +26°C° 0 mm 2 mps 759 mmHg 96%

    22 February, Friday

    Time Temperature Precipitation Wind Pressure Humidity
    00:00 +26°C° 0 mm 2 mps 758 mmHg 96%
    01:00 +25°C° 0 mm 2 mps 758 mmHg 96%
    02:00 +25°C° 0 mm 2 mps 758 mmHg 95%
    03:00 +25°C° 0 mm 2 mps 757 mmHg 94%
    04:00 +25°C° 0 mm 2 mps 757 mmHg 93%
    05:00 +25°C° 0 mm 2 mps 758 mmHg 91%
    06:00 +25°C° 0 mm 2 mps 758 mmHg 89%
    07:00 +26°C° 0 mm 2 mps 759 mmHg 87%
    08:00 +28°C° 0 mm 2 mps 759 mmHg 77%
    09:00 +31°C° 0 mm 3 mps 759 mmHg 67%
    10:00 +34°C° 0 mm 3 mps 760 mmHg 57%
    11:00 +35°C° 0 mm 3 mps 759 mmHg 54%
    12:00 +35°C° 0 mm 4 mps 758 mmHg 51%
    13:00 +36°C° 0 mm 4 mps 757 mmHg 48%
    14:00 +35°C° 0 mm 4 mps 757 mmHg 53%
    15:00 +34°C° 0 mm 4 mps 757 mmHg 59%
    16:00 +33°C° 0 mm 4 mps 756 mmHg 64%
    17:00 +30°C° 0 mm 4 mps 757 mmHg 71%
    18:00 +29°C° 0 mm 4 mps 757 mmHg 78%
    19:00 +27°C° 0 mm 3 mps 758 mmHg 84%
    20:00 +27°C° 0 mm 3 mps 758 mmHg 86%
    21:00 +27°C° 0 mm 3 mps 759 mmHg 87%
    22:00 +27°C° 0 mm 3 mps 759 mmHg 89%
    23:00 +26°C° 0 mm 3 mps 759 mmHg 91%

    23 February, Saturday

    Time Temperature Precipitation Wind Pressure Humidity
    00:00 +26°C° 0 mm 3 mps 758 mmHg 93%
    01:00 +25°C° 0 mm 3 mps 758 mmHg 96%
    02:00 +25°C° 0 mm 3 mps 758 mmHg 96%
    03:00 +24°C° 0 mm 3 mps 758 mmHg 96%
    04:00 +24°C° 0 mm 2 mps 757 mmHg 97%
    05:00 +24°C° 0 mm 2 mps 758 mmHg 95%
    06:00 +24°C° 0 mm 3 mps 758 mmHg 93%
    07:00 +25°C° 0 mm 3 mps 759 mmHg 91%
    08:00 +27°C° 0 mm 3 mps 759 mmHg 80%
    09:00 +30°C° 0 mm 3 mps 759 mmHg 68%
    10:00 +33°C° 0 mm 3 mps 759 mmHg 57%
    11:00 +34°C° 0 mm 4 mps 759 mmHg 55%
    12:00 +34°C° 0 mm 4 mps 758 mmHg 54%
    13:00 +35°C° 0 mm 5 mps 757 mmHg 52%
    14:00 +34°C° 0 mm 5 mps 756 mmHg 58%
    15:00 +33°C° 0 mm 5 mps 756 mmHg 64%
    16:00 +32°C° 0 mm 5 mps 756 mmHg 70%
    17:00 +29°C° 0.1 mm 4 mps 756 mmHg 78%
    18:00 +27°C° 0.1 mm 4 mps 757 mmHg 86%
    19:00 +26°C° 0.1 mm 3 mps 758 mmHg 93%
    20:00 +26°C° 0 mm 3 mps 758 mmHg 94%
    21:00 +25°C° 0 mm 3 mps 758 mmHg 95%
    22:00 +25°C° 0 mm 3 mps 759 mmHg 96%
    23:00 +25°C° 0 mm 3 mps 758 mmHg 95%

    24 February, Sunday

    Time Temperature Precipitation Wind Pressure Humidity
    00:00 +25°C° 0 mm 3 mps 758 mmHg 95%
    01:00 +25°C° 0 mm 3 mps 758 mmHg 94%
    02:00 +25°C° 0 mm 3 mps 757 mmHg 94%
    03:00 +25°C° 0 mm 3 mps 757 mmHg 94%
    04:00 +25°C° 0 mm 3 mps 757 mmHg 94%
    05:00 +25°C° 0 mm 3 mps 758 mmHg 93%
    06:00 +25°C° 0 mm 3 mps 758 mmHg 92%
    07:00 +25°C° 0 mm 3 mps 759 mmHg 92%
    08:00 +28°C° 0 mm 3 mps 759 mmHg 81%
    09:00 +30°C° 0 mm 3 mps 759 mmHg 70%
    10:00 +33°C° 0 mm 3 mps 759 mmHg 60%
    11:00 +34°C° 0 mm 4 mps 758 mmHg 56%
    12:00 +35°C° 0 mm 4 mps 757 mmHg 52%
    13:00 +36°C° 0 mm 4 mps 756 mmHg 49%
    14:00 +35°C° 0 mm 4 mps 756 mmHg 52%
    15:00 +34°C° 0 mm 5 mps 756 mmHg 56%
    16:00 +33°C° 0 mm 5 mps 755 mmHg 59%
    17:00 +30°C° 0 mm 4 mps 756 mmHg 68%
    18:00 +28°C° 0 mm 3 mps 756 mmHg 77%
    19:00 +26°C° 0 mm 3 mps 757 mmHg 86%
    20:00 +26°C° 0 mm 3 mps 757 mmHg 87%
    21:00 +26°C° 0 mm 3 mps 758 mmHg 88%
    22:00 +26°C° 0 mm 2 mps 758 mmHg 88%
    23:00 +25°C° 0 mm 2 mps 758 mmHg 90%
    Show more